This is the latest recevied weather packets stored in our database for station/object VE3GIF. If no packets are shown the sender has not sent any weather packets the latest 10 day(s).
| Time | Temp. | Humidity | Pressure | Rain* | Wind** | Luminosity | Snow |
|---|---|---|---|---|---|---|---|
| 1777997508 | 15.56° C | 70% | 1002.8 hPa | 0 mm | - | - | - |
| 1777997207 | 15.56° C | 71% | 1002.7 hPa | 0 mm | - | - | - |
| 1777996907 | 15.56° C | 70% | 1002.6 hPa | 0 mm | - | - | - |
| 1777996306 | 15.56° C | 70% | 1002.2 hPa | 0 mm | - | - | - |
| 1777996006 | 15.56° C | 70% | 1002 hPa | 0 mm | - | - | - |
| 1777995706 | 15.56° C | 68% | 1002.2 hPa | 0 mm | - | - | - |
| 1777995406 | 16.11° C | 69% | 1002.4 hPa | 0 mm | - | - | - |
| 1777995105 | 16.11° C | 69% | 1002.4 hPa | 0 mm | - | - | - |
| 1777994805 | 16.11° C | 69% | 1002.3 hPa | 0 mm | - | - | - |
| 1777994505 | 15.56° C | 69% | 1002.1 hPa | 0 mm | - | - | - |
| 1777993604 | 15.56° C | 67% | 1001.6 hPa | 0 mm | - | - | - |
| 1777993304 | 15.56° C | 67% | 1001.5 hPa | 0 mm | - | - | - |
| 1777993003 | 15.56° C | 68% | 1001.3 hPa | 0 mm | - | - | - |
| 1777992403 | 15° C | 68% | 1000.9 hPa | 0 mm | - | - | - |
| 1777992102 | 14.44° C | 69% | 1000.9 hPa | 0 mm | - | - | - |
| 1777991802 | 14.44° C | 68% | 1000.6 hPa | 0 mm | - | - | - |
| 1777991202 | 15.56° C | 68% | 1000.7 hPa | 0 mm | - | - | - |
| 1777990901 | 16.67° C | 66% | 1000.6 hPa | 0 mm | - | - | - |
| 1777990601 | 17.78° C | 71% | 1000.5 hPa | 0 mm | - | - | - |
| 1777990000 | 17.78° C | 71% | 1000.6 hPa | 0 mm | - | - | - |
| 1777989700 | 17.78° C | 71% | 1000.5 hPa | 0 mm | - | - | - |
| 1777989400 | 17.78° C | 70% | 1000.3 hPa | 0 mm | - | - | - |
| 1777989100 | 17.78° C | 71% | 1000.4 hPa | 0 mm | - | - | - |
| 1777988799 | 17.78° C | 71% | 1000.3 hPa | 0 mm | - | - | - |
| 1777987898 | 17.22° C | 71% | 1000.3 hPa | 0 mm | - | - | - |
* Rain latest hour (hover to see other rain measurements)
** Current wind speed in m/s (hover to see current wind gust speed)